Flag for U.S.A. Weather past 2 weeks in Burbank, California, U.S.A.

Now
65 °F

Overcast.


Feels Like: 65 °F
Forecast: 63 / 82 °F
Wind: No wind

Location: Burbank-Glendale-Pasadena Airport

Current Time: Sep 21, 2014 at 8:10:14 AM

Latest Report: Sep 21, 2014 at 6:53 AM


Visibility: 10 mi

Pressure: 29.94 "Hg

Humidity: 78%

Dew point: 58 °F

Location of BurbankLocation

Historic Weather in Burbank — Graph

°F

Burbank temperature yesterday

Maximum temperature yesterday: 79 °F (at 3:53 PM)
Minimum temperature yesterday: 65 °F (at 4:53 AM)
Average temperature yesterday: 70 °F

Past Weeks' High & Low Weather Summary

 TemperatureHumidityPressure
High103 °F (Sep 14, 12:53 PM)83% (Sep 19, 6:04 AM)29.94 "Hg (Sep 19, 6:04 AM)
Low63 °F (Sep 10, 6:53 AM)12% (Sep 14, 2:53 PM)29.64 "Hg (Sep 16, 4:53 PM)
Average81 °F43%29.78 "Hg
* Reported Sep 6 6:53 AM — Sep 21 6:53 AM, Burbank, Weather by CustomWeather, © 2014

Note: Actual official high and low records may vary slightly from our data, if they occured in-between our weather recording intervals... More about our weather records

Advertising

Burbank weather history for previous 24 hours

 ConditionsComfort  
Time TempWeatherWind HumidityBarometerVisibility
6:53 AM
Sep 21
65 °FOvercast.No wind78%29.94 "Hg10 mi
5:53 AM64 °FOvercast.No wind78%29.92 "Hg10 mi
4:53 AM64 °FPassing clouds.No wind81%29.91 "Hg10 mi
3:53 AM65 °FClear.5 mph78%29.90 "Hg10 mi
2:53 AM65 °FClear.6 mph78%29.90 "Hg10 mi
1:53 AM66 °FClear.5 mph75%29.91 "Hg10 mi
12:53 AM66 °FClear.3 mph75%29.91 "Hg10 mi
11:53 PM
Sep 20
67 °FClear.No wind73%29.91 "Hg10 mi
10:53 PM67 °FClear.No wind71%29.90 "Hg10 mi
9:53 PM68 °FClear.No wind68%29.90 "Hg10 mi
8:53 PM68 °FClear.3 mph70%29.89 "Hg10 mi
7:53 PM69 °FClear.5 mph68%29.87 "Hg10 mi
6:53 PM72 °FSunny.7 mph64%29.86 "Hg10 mi
5:53 PM75 °FSunny.10 mph58%29.85 "Hg10 mi
4:53 PM77 °FSunny.8 mph54%29.84 "Hg10 mi
3:53 PM79 °FSunny.12 mph50%29.84 "Hg10 mi
2:53 PM77 °FSunny.No wind54%29.86 "Hg10 mi
1:53 PM74 °FPartly sunny.No wind60%29.88 "Hg10 mi
12:53 PM71 °FOvercast.No wind68%29.91 "Hg10 mi
11:53 AM69 °FOvercast.3 mph73%29.93 "Hg10 mi
10:53 AM68 °FOvercast.3 mph76%29.93 "Hg10 mi
Weather by CustomWeather, © 2014

See weather overviewHow to use our weather pages